Hourly Data Report for January 31, 2022

IQALUIT CLIMATE
NUNAVUT
Current Station Operator: ECCC - MSC

63°44'50.000" N
68°32'40.000" W
33.50 m
2402592
71321
XFB

Download Data

Hourly Data (January 2022)
Hourly Data Report for January 31, 2022
TIME
LST
Temp Definition
°C
Dew Point Definition
°C
Rel Hum Definition
%
Precip. Amount Definition
mm

Wind Dir Definition
10's deg

Wind Spd Definition
km/h
Visibility Definition
km
Stn Press Definition
kPa
Hmdx Definition


Wind Chill Definition


Weather Definition


00:00 -32.2 -35.7 71 0.1 32 14   100.39   -44 LegendNANA
01:00 -31.6 -35.3 70 0.0 35 13   100.36   -43 LegendNANA
02:00 -31.8 -35.3 71 0.2 33 24   100.34   -47 LegendNANA
03:00 -28.8 -32.0 74 0.0 34 22   100.34   -42 LegendNANA
04:00 -31.6 -35.1 71 0.0 31 18   100.40   -44 LegendNANA
05:00 -32.4 -36.1 70 0.0 31 17   100.44   -45 LegendNANA
06:00 -31.9 -35.7 69 0.0 32 20   100.48   -45 LegendNANA
07:00 -32.7 -36.6 68 0.0 33 22   100.54   -47 LegendNANA
08:00 -33.9 -37.9 67 0.0 33 21   100.58   -48 LegendNANA
09:00 -32.4 -36.1 69 0.0 33 17   100.63   -45 LegendNANA
10:00 -32.1 -36.0 69 0.0 20 3   100.74   -36 LegendNANA
11:00 -33.1 -37.1 68 0.0 32 9   100.81   -42 LegendNANA
12:00 -32.6 -36.5 68 0.0 33 17   100.86   -45 LegendNANA
13:00 -32.6 -36.6 67 0.0 31 12   100.96   -43 LegendNANA
14:00 -32.2 -36.2 68 0.0 33 7   101.06   -40 LegendNANA
15:00 -33.5 -37.5 68 0.0 2 2   101.16   -36 LegendNANA
16:00 -33.3 -36.8 70 0.0 36 1   101.26   -35 LegendNANA
17:00 -36.9 -41.3 64 0.3 2 3   101.37   -41 LegendNANA
18:00 -33.6 -37.3 69 0.1 35 4   101.45   -38 LegendNANA
19:00 -33.8 -37.5 70 0.0 36 3   101.54   -37 LegendNANA
20:00 -35.1 -39.2 66 0.0 36 4   101.61   -40 LegendNANA
21:00 -36.8 -41.0 65 0.5 1 3   101.68   -41 LegendNANA
22:00 -33.1 -36.5 72 0.0 3 3   101.73   -37 LegendNANA
23:00 -34.0 -37.9 68 0.2 22 2   101.77   -36 LegendNANA

Notes on Data Quality.

Legend

  • E = Estimated
  • M = Missing
  • NA = Not Available*
  • [empty] = Indicates an unobserved value
Date modified: